Regional Weather Roundup
Issued by NWS

Home | Current Version | Previous Version | Graphics & Text | Print | Product List | Glossary On
Versions: 1 2 3 4 5 6 7 8 9 10 11 12 13 14 15 16 17 18 19 20 21 22 23 24 25 26 27 28 29 30 31 32 33 34 35 36 37 38 39 40 41 42 43 44 45 46 47 48
245
ASUS45 KCYS 220910
RWRWY

WYOMING REGIONAL WEATHER ROUNDUP
NATIONAL WEATHER SERVICE CHEYENNE WY
300 AM MDT WED MAR 22 2017

NOTE:  "FAIR" INDICATES FEW OR NO CLOUDS BELOW 12,000 FEET
WITH NO SIGNIFICANT WEATHER AND/OR OBSTRUCTIONS TO VISIBILITY.

WYZ001-221000-
YELLOWSTONE NATIONAL PARK

CITY           SKY/WX    TMP DP  RH WIND       PRES   REMARKS
LK YELLOWSTONE   N/A     32  32 100 CALM      29.99R
W YELLOWSTONE  NOT AVBL

$$
WYZ002>013-054>058-071-098>099-221000-
NORTHERN WYOMING

CITY           SKY/WX    TMP DP  RH WIND       PRES   REMARKS
JACKSON        CLOUDY    37  36  93 W5        29.96S WCI  34
CODY           FAIR      34  33  96 CALM      29.84F
GREYBULL       FAIR      37  35  92 CALM      29.83F
WORLAND        FAIR      36  36 100 SW9       29.84F WCI  29
SHERIDAN       FOG       34  33  96 SW3       29.82F VSB 1/2
BUFFALO        FAIR      41  35  79 SW9       29.84F
GILLETTE       FAIR      34  31  88 S18G30    29.90F WCI  23
HULETT         FAIR      45  32  61 SW7       29.93F
NEWCASTLE      FAIR      37  28  70 SE18      30.02F WCI  27

$$
WYZ014>020-022>026-101>103-221000-
CENTRAL WYOMING

CITY           SKY/WX    TMP DP  RH WIND       PRES   REMARKS
BIG PINEY      FAIR      32  31  96 CALM      29.98F
PINEDALE       CLOUDY    34  32  93 CALM      30.01S
DUBOIS         FAIR      34  32  93 CALM      29.93F
LANDER         FAIR      39  35  86 N10       29.86F WCI  32
RIVERTON       FAIR      39  35  86 NW9       29.87F WCI  33
CASPER         FOG       31  31 100 CALM      29.92F VSB 1
DOUGLAS        FAIR      38  28  67 SE20G31   29.97F WCI  28

$$
WYZ021-027>030-104>119-221000-
SOUTHERN WYOMING

CITY           SKY/WX    TMP DP  RH WIND       PRES   REMARKS
EVANSTON       FAIR      40  36  86 SW5       30.01F
KEMMERER         N/A     41  34  75 SW7       30.02S
FORT BRIDGER   PTSUNNY   45  36  70 W9        30.04F
ROCK SPRINGS   FAIR      47  27  45 S5        29.98F
DIXON            N/A     56  24  29 S12G20    30.04F
RAWLINS        FAIR      49  23  36 SW10      30.00F
SARATOGA       FAIR      54  23  30 SW21G28   30.04S
LARAMIE        FAIR      34  30  85 S12       30.05F WCI  25
CHEYENNE       FAIR      33  27  78 S8        30.10F WCI  26
TORRINGTON     FAIR      34  30  85 E12       30.08F WCI  25
PINE BLUFFS    FAIR      36  27  69 S22G31    30.11F WCI  24

$$




USA.gov is the U.S. government's official web portal to all federal, state and local government web resources and services.